Weather in Kolyanovo

Russia / Ivanovo Oblast     56°56′56″N   40°58′07″E
temp.,
°C
wind,
m/s
gust,
m/s
humid.,
%
clouds,
%
prec.,
mm/h
press.,
hPa
HPBL,
m
19 january, wed
wed1900:00−12nw4109471 0.0 1013238
03:00−15wnw369973 0.0 1014100
06:00−16wnw249980 0.0 101552
09:00−17w2310098 0.1 101545
12:00−12w239325 0.0 1015138
15:00−11sw24955 0.0 101599
18:00−15ssw3109591 0.0 1014139
21:00−12ssw41288100 0.0 1012246
20 january, thu
thu2000:00−10ssw51487100 0.0 1011365
03:00−9ssw61593100 0.0 1009408
06:00−8ssw61593100 0.1 1007441
09:00−7s61493100 0.3 1006470
12:00−6s61493100 0.1 1006473
15:00−5s61592100 0.2 1005550
18:00−7s61493100 0.1 1005506
21:00−7s61592100 0.2 1005578
21 january, fri
fri2100:00−9s61592100 0.1 1005540
03:00−9s61491100 0.3 1005545
06:00−9sse51394100 0.4 1005539
09:00−8sse51294100 0.8 1006492
12:00−7sse51294100 0.6 1006496
15:00−7se61295100 1.4 1005632
18:00−8se61394100 0.9 1005734
21:00−8se61292100 1.3 1006612
22 january, sat
sat2200:00−8ese51293100 0.2 1006573
03:00−7ese51195100 0.9 1007619
06:00−8se51194100 0.4 1008449
09:00−9se4996100 0.6 1012267
12:00−8ese4996100 0.0 1014337
15:00−7ese3895100 0.1 1016316
18:00−11e389996 0.0 1019115
21:00−15e2410097 0.1 102143
23 january, sun
sun2300:00−18e22100100 0.0 102321
03:00−20ene22100100 0.1 102515
06:00−17ne119995 0.1 102634
09:00−18ne23100100 0.1 102843
12:00−12nne129597 0.1 1029122
15:00−11n239672 0.1 103088
18:00−19nnw1110064 0.0 10329
21:00−21nw1110084 0.0 10349